User: anonymous   Login
Location: Unspecified
(0.0000°N, 0.0000°E)
Time: 20:55:24
(UTC+00:00)
Language:

XW-2C - Orbit

View from above orbital plane
View from above orbital plane
View from above satellite
View from above satellite

Ground track
Ground track

The orbit data is extracted from the following two-line orbital elements,

1 40906U 15049H   18016.54731369  .00000594  00000-0  35274-4 0  9995
2 40906  97.4576  22.8625 0014750 189.5175 170.5780 15.14975625128539
Epoch (UTC): 16 January 2018 13:08:07
Eccentricity: 0.0014750
inclination: 97.4576°
perigee height: 511 km
apogee height: 531 km
right ascension of ascending node: 22.8625°
argument of perigee: 189.5175°
revolutions per day: 15.14975625
mean anomaly at epoch: 170.5780°
orbit number at epoch: 12853

The dashed part of the orbit path shows where the satellite is in the earth's shadow,  

DLR